KC5ZJO-1 Weather Reports


Display with metric or nautical units.
time (UTC)temp
F
wind
direction
speed
MPH
gust
MPH
rain 1hr
in
rain 24hr
in
rain mn
in
humidity
%
barometer
mb
20260510230503 80 203 0.0 0.0 0.00 0.00 0.00 100 1014.9
20260510230003 81 203 0.0 0.0 0.00 0.00 0.00 100 1014.9
20260510225524 81 203 0.0 0.0 0.00 0.00 0.00 100 1014.8
20260510225004 81 203 0.0 0.0 0.00 0.00 0.00 100 1014.8
20260510224003 81 203 0.0 3.0 0.00 0.00 0.00 100 1014.8
20260510223503 81 203 0.0 3.0 0.00 0.00 0.00 100 1014.9
20260510223003 81 203 0.0 0.0 0.00 0.00 0.00 100 1014.9
20260510222525 82 203 0.0 0.0 0.00 0.00 0.00 100 1014.9
20260510222024 81 203 0.0 0.0 0.00 0.00 0.00 51 1014.8
20260510221504 82 203 0.0 0.0 0.00 0.00 0.00 100 1014.9
20260510221003 81 203 0.0 5.0 0.00 0.00 0.00 53 1015.0
20260510220503 81 185 1.0 6.0 0.00 0.00 0.00 100 1015.0
20260510220003 81 185 1.0 6.0 0.00 0.00 0.00 45 1015.0
20260510215524 81 262 0.0 5.0 0.00 0.00 0.00 45 1015.0
20260510215002 81 64 0.0 4.0 0.00 0.00 0.00 46 1015.1
20260510214526 81 64 0.0 4.0 0.00 0.00 0.00 47 1015.0
20260510214003 82 71 0.0 3.0 0.00 0.00 0.00 47 1015.1
20260510213004 81 75 0.0 5.0 0.00 0.00 0.00 45 1015.2
20260510212504 82 60 2.0 5.0 0.00 0.00 0.00 44 1015.2
20260510212004 82 56 0.0 0.0 0.00 0.00 0.00 44 1015.2
20260510211503 82 56 0.0 3.0 0.00 0.00 0.00 44 1015.2
20260510211003 81 56 0.0 5.0 0.00 0.00 0.00 46 1015.2
20260510210503 82 104 1.0 5.0 0.00 0.00 0.00 45 1015.2
20260510210025 82 332 2.0 5.0 0.00 0.00 0.00 46 1015.1
20260510205503 82 23 1.0 6.0 0.00 0.00 0.00 47 1015.2
20260510205003 81 4 0.0 8.0 0.00 0.00 0.00 48 1015.1
20260510204524 81 313 6.0 8.0 0.00 0.00 0.00 48 1015.2
20260510204004 81 210 0.0 5.0 0.00 0.00 0.00 48 1015.2
20260510203504 81 17 1.0 6.0 0.00 0.00 0.00 49 1015.3
20260510203004 81 302 0.0 6.0 0.00 0.00 0.00 49 1015.4
20260510202503 81 287 2.0 4.0 0.00 0.00 0.00 48 1015.6
20260510202004 81 296 0.0 10.0 0.00 0.00 0.00 50 1015.6
20260510201503 81 291 2.0 10.0 0.00 0.00 0.00 50 1015.6
20260510201024 81 311 6.0 9.0 0.00 0.00 0.00 49 1015.7
20260510200503 81 305 2.0 8.0 0.00 0.00 0.00 51 1015.8
20260510200003 80 18 0.0 5.0 0.00 0.00 0.00 53 1015.9
20260510195503 80 40 1.0 5.0 0.00 0.00 0.00 55 1015.9
20260510195004 79 296 0.0 0.0 0.00 0.00 0.00 54 1015.8
20260510194503 79 296 0.0 0.0 0.00 0.00 0.00 56 1015.8
20260510194003 79 296 0.0 4.0 0.00 0.00 0.00 55 1015.9
20260510193503 79 296 0.0 4.0 0.00 0.00 0.00 54 1015.9
20260510193025 78 301 1.0 3.0 0.00 0.00 0.00 55 1015.9
20260510192503 78 307 0.0 6.0 0.00 0.00 0.00 55 1015.9
20260510192004 78 293 2.0 6.0 0.00 0.00 0.00 56 1015.9
20260510191504 78 358 0.0 0.0 0.00 0.00 0.00 57 1015.9
20260510191025 79 358 0.0 5.0 0.00 0.00 0.00 56 1015.9
20260510190503 79 358 0.0 7.0 0.00 0.00 0.00 56 1016.0
20260510190004 79 323 2.0 7.0 0.00 0.00 0.00 57 1016.1
20260510185503 79 324 4.0 7.0 0.00 0.00 0.00 57 1016.1
20260510185003 78 351 0.0 7.0 0.00 0.00 0.00 57 1016.2
20260510184503 79 301 2.0 7.0 0.00 0.00 0.00 57 1016.3
20260510184003 79 166 1.0 7.0 0.00 0.00 0.00 58 1016.3
20260510183503 78 6 2.0 7.0 0.00 0.00 0.00 59 1016.3
20260510183004 77 302 1.0 6.0 0.00 0.00 0.00 59 1016.3
20260510182503 77 340 0.0 6.0 0.00 0.00 0.00 59 1016.4
20260510182003 77 315 3.0 7.0 0.00 0.00 0.00 60 1016.3
20260510181503 77 316 4.0 8.0 0.00 0.00 0.00 60 1016.4
20260510181003 77 308 3.0 8.0 0.00 0.00 0.00 60 1016.4
20260510180503 77 214 4.0 7.0 0.00 0.00 0.00 62 1016.5
20260510180003 76 3 2.0 6.0 0.00 0.00 0.00 63 1016.6
20260510175524 76 316 0.0 6.0 0.00 0.00 0.00 64 1016.7
20260510175003 76 314 2.0 6.0 0.00 0.00 0.00 65 1016.7
20260510174524 76 62 0.0 6.0 0.00 0.00 0.00 67 1016.7
20260510174003 76 299 2.0 7.0 0.00 0.00 0.00 67 1016.8
20260510173504 76 341 3.0 7.0 0.00 0.00 0.00 69 1016.8
20260510173004 76 319 5.0 7.0 0.00 0.00 0.00 69 1016.8
20260510172503 75 151 0.0 7.0 0.00 0.00 0.00 72 1016.8
20260510172003 75 188 5.0 7.0 0.00 0.00 0.00 71 1016.9
20260510171502 75 219 2.0 6.0 0.00 0.00 0.00 73 1016.9
20260510171025 75 243 2.0 8.0 0.00 0.00 0.00 72 1016.8
20260510170502 75 184 6.0 8.0 0.00 0.00 0.00 73 1016.8
20260510170003 75 332 1.0 3.0 0.00 0.00 0.00 75 1016.8
20260510165503 74 216 0.0 0.0 0.00 0.00 0.00 76 1016.9
20260510165003 74 216 0.0 4.0 0.00 0.00 0.00 79 1016.9
20260510164503 74 265 1.0 5.0 0.00 0.00 0.00 79 1016.9
20260510164003 74 241 0.0 7.0 0.00 0.00 0.00 81 1017.0
20260510163503 73 247 0.0 7.0 0.00 0.00 0.00 82 1017.1
20260510163025 73 287 3.0 5.0 0.00 0.00 0.00 83 1017.2
20260510162502 73 219 0.0 6.0 0.00 0.00 0.00 84 1017.1
20260510162003 73 225 2.0 6.0 0.00 0.00 0.00 85 1017.2
20260510161504 73 233 1.0 5.0 0.00 0.00 0.00 87 1017.1
20260510161003 73 227 1.0 7.0 0.00 0.00 0.00 88 1017.1
20260510160503 72 289 0.0 7.0 0.00 0.00 0.00 88 1017.1
20260510160003 72 297 2.0 7.0 0.00 0.00 0.00 89 1017.1
20260510155525 72 184 0.0 7.0 0.00 0.00 0.00 90 1017.1
20260510155023 72 226 4.0 7.0 0.00 0.00 0.00 92 1017.0
20260510154502 72 245 2.0 6.0 0.00 0.00 0.00 93 1016.9
20260510154046 71 184 0.0 6.0 0.00 0.00 0.00 94 1016.9
20260510153503 70 279 1.0 6.0 0.00 0.00 0.00 95 1016.9
20260510153004 70 186 1.0 6.0 0.00 0.00 0.00 95 1016.9
20260510152503 69 266 2.0 6.0 0.00 0.00 0.00 96 1016.9
20260510152003 69 176 1.0 5.0 0.00 0.00 0.00 97 1016.9
20260510151503 68 329 1.0 5.0 0.00 0.00 0.00 97 1017.0
20260510151003 68 219 0.0 6.0 0.00 0.00 0.00 98 1017.0
20260510150502 68 210 2.0 6.0 0.00 0.00 0.00 100 1017.0
20260510150004 67 194 0.0 4.0 0.00 0.00 0.00 100 1017.0
20260510145503 67 205 2.0 6.0 0.00 0.00 0.00 100 1017.0
20260510145005 66 211 3.0 6.0 0.00 0.00 0.00 100 1017.0
20260510144502 66 238 0.0 3.0 0.00 0.00 0.00 100 1017.0
20260510144024 66 216 0.0 5.0 0.00 0.00 0.00 100 1017.2
20260510143504 65 216 0.0 5.0 0.00 0.00 0.00 100 1017.2
20260510143003 65 192 1.0 5.0 0.00 0.00 0.00 100 1017.2
20260510142502 65 168 0.0 0.0 0.00 0.00 0.00 100 1017.2
20260510142002 64 168 0.0 0.0 0.00 0.00 0.00 100 1017.2
20260510141524 64 168 0.0 0.0 0.00 0.00 0.00 100 1017.1
20260510141024 63 168 0.0 0.0 0.00 0.00 0.00 100 1017.2
20260510140503 63 168 0.0 0.0 0.00 0.00 0.00 100 1017.2
20260510140003 63 168 0.0 0.0 0.00 0.00 0.00 100 1017.2
20260510135503 63 168 0.0 0.0 0.00 0.00 0.00 100 1017.2
20260510135003 63 168 0.0 3.0 0.00 0.00 0.00 100 1017.1
20260510134505 63 190 1.0 3.0 0.00 0.00 0.00 100 1017.1
20260510134002 63 196 0.0 0.0 0.00 0.00 0.00 100 1017.0
20260510133502 63 196 0.0 0.0 0.00 0.00 0.00 100 1017.0
20260510133003 63 196 0.0 0.0 0.00 0.00 0.00 100 1016.9
20260510132503 62 196 0.0 0.0 0.00 0.00 0.00 100 1017.0
20260510132024 62 196 0.0 0.0 0.00 0.00 0.00 100 1017.0
20260510131503 63 196 0.0 0.0 0.00 0.00 0.00 100 1016.9
20260510131003 62 196 0.0 0.0 0.00 0.00 0.00 100 1016.9
20260510130502 62 196 0.0 0.0 0.00 0.00 0.00 100 1016.8
20260510130003 62 196 0.0 0.0 0.00 0.00 0.00 100 1016.8
20260510125503 62 196 0.0 0.0 0.00 0.00 0.00 100 1016.7
20260510125003 62 196 0.0 0.0 0.00 0.00 0.00 100 1016.7
20260510124503 62 196 0.0 0.0 0.00 0.00 0.00 100 1016.6
20260510124002 62 196 0.0 0.0 0.00 0.00 0.00 100 1016.4
20260510123502 62 196 0.0 0.0 0.00 0.00 0.00 100 1016.3
20260510123003 62 196 0.0 0.0 0.00 0.00 0.00 100 1016.3
20260510122503 62 196 0.0 0.0 0.00 0.00 0.00 100 1016.2
20260510122024 61 196 0.0 0.0 0.00 0.00 0.00 100 1016.1
20260510121502 61 196 0.0 0.0 0.00 0.00 0.00 100 1016.2
20260510121045 61 196 0.0 0.0 0.00 0.00 0.00 100 1016.1
20260510120545 61 196 0.0 0.0 0.00 0.00 0.00 100 1016.2
20260510120003 61 196 0.0 0.0 0.00 0.00 0.00 100 1016.1
20260510115503 61 196 0.0 0.0 0.00 0.00 0.00 100 1016.0
20260510115024 61 196 0.0 0.0 0.00 0.00 0.00 100 1015.9
20260510114502 61 196 0.0 0.0 0.00 0.00 0.00 100 1015.8
20260510114024 61 196 0.0 0.0 0.00 0.00 0.00 100 1015.8
20260510113524 60 196 0.0 0.0 0.00 0.00 0.00 100 1015.7
20260510113003 60 196 0.0 0.0 0.00 0.00 0.00 100 1015.7
20260510112503 60 196 0.0 0.0 0.00 0.00 0.00 100 1015.6
20260510112003 60 196 0.0 0.0 0.00 0.00 0.00 100 1015.5
20260510111502 60 196 0.0 0.0 0.00 0.00 0.00 100 1015.4
20260510110504 59 196 0.0 0.0 0.00 0.00 0.00 100 1015.3
20260510110003 59 196 0.0 0.0 0.00 0.00 0.00 100 1015.3
20260510105503 59 196 0.0 0.0 0.00 0.00 0.00 100 1015.1
20260510105002 59 196 0.0 0.0 0.00 0.00 0.00 100 1015.0
20260510104503 59 196 0.0 0.0 0.00 0.00 0.00 100 1014.9
20260510104003 59 196 0.0 0.0 0.00 0.00 0.00 100 1014.8
20260510103503 59 196 0.0 0.0 0.00 0.00 0.00 100 1014.7
20260510103003 59 196 0.0 0.0 0.00 0.00 0.00 100 1014.6
20260510102503 59 196 0.0 0.0 0.00 0.00 0.00 100 1014.6
20260510102003 59 196 0.0 0.0 0.00 0.00 0.00 100 1014.5
20260510101503 58 196 0.0 0.0 0.00 0.00 0.00 100 1014.5
20260510101003 58 196 0.0 0.0 0.00 0.00 0.00 100 1014.5
20260510100503 58 196 0.0 0.0 0.00 0.00 0.00 100 1014.5
20260510100004 58 196 0.0 0.0 0.00 0.00 0.00 100 1014.5
20260510095503 58 196 0.0 0.0 0.00 0.00 0.00 100 1014.4
20260510095024 58 196 0.0 0.0 0.00 0.00 0.00 100 1014.4
20260510094503 58 196 0.0 0.0 0.00 0.00 0.00 100 1014.4
20260510094003 58 196 0.0 0.0 0.00 0.00 0.00 100 1014.2
20260510093504 58 196 0.0 0.0 0.00 0.00 0.00 100 1014.2
20260510093003 58 196 0.0 0.0 0.00 0.00 0.00 100 1014.2
20260510092504 58 196 0.0 0.0 0.00 0.00 0.00 100 1014.2
20260510092003 58 196 0.0 0.0 0.00 0.00 0.00 100 1014.3
20260510091504 58 196 0.0 0.0 0.00 0.00 0.00 100 1014.4
20260510091004 58 196 0.0 0.0 0.00 0.00 0.00 100 1014.5
20260510090503 58 196 0.0 0.0 0.00 0.00 0.00 100 1014.4
20260510090003 58 196 0.0 0.0 0.00 0.00 0.00 100 1014.5
20260510085003 58 196 0.0 0.0 0.00 0.00 0.00 100 1014.2
20260510084503 58 196 0.0 0.0 0.00 0.00 0.00 100 1014.1
20260510084005 58 196 0.0 0.0 0.00 0.00 0.00 100 1014.0
20260510083504 58 196 0.0 0.0 0.00 0.00 0.00 100 1013.9
20260510083004 58 196 0.0 0.0 0.00 0.00 0.00 100 1013.8
20260510082504 59 196 0.0 0.0 0.00 0.00 0.00 100 1013.8
20260510082025 59 196 0.0 0.0 0.00 0.00 0.00 100 1013.7
20260510081504 59 196 0.0 0.0 0.00 0.00 0.00 100 1013.5
20260510081003 59 196 0.0 0.0 0.00 0.00 0.00 100 1013.3
20260510080503 59 196 0.0 0.0 0.00 0.00 0.00 100 1013.3
20260510080004 59 196 0.0 0.0 0.00 0.00 0.00 99 1013.3
20260510075503 59 196 0.0 0.0 0.00 0.00 0.00 99 1013.3
20260510075003 59 196 0.0 0.0 0.00 0.00 0.00 99 1013.3
20260510074503 59 196 0.0 0.0 0.00 0.00 0.00 99 1013.3
20260510074003 59 196 0.0 0.0 0.00 0.00 0.00 99 1013.2
20260510073503 59 196 0.0 0.0 0.00 0.00 0.00 98 1013.1
20260510073003 59 196 0.0 0.0 0.00 0.00 0.00 98 1013.2
20260510072545 59 196 0.0 0.0 0.00 0.00 0.00 98 1013.3
20260510072003 59 196 0.0 0.0 0.00 0.00 0.00 98 1013.2
20260510071504 60 196 0.0 0.0 0.00 0.00 0.00 98 1013.2
20260510071004 60 196 0.0 0.0 0.00 0.00 0.00 98 1013.3
20260510070504 60 196 0.0 0.0 0.00 0.00 0.00 98 1013.3
20260510070004 60 196 0.0 0.0 0.00 0.00 0.00 98 1013.2
20260510065525 60 196 0.0 0.0 0.00 0.00 0.00 98 1013.2
20260510065004 60 196 0.0 0.0 0.00 0.00 0.00 98 1013.2
20260510064504 60 196 0.0 0.0 0.00 0.00 0.00 98 1013.2
20260510064003 60 196 0.0 0.0 0.00 0.00 0.00 97 1013.2
20260510063524 60 196 0.0 0.0 0.00 0.00 0.00 97 1013.3
20260510063003 60 196 0.0 0.0 0.00 0.00 0.00 97 1013.3
20260510062503 60 196 0.0 0.0 0.00 0.00 0.00 97 1013.3
20260510062003 60 196 0.0 0.0 0.00 0.00 0.00 97 1013.3
20260510061524 60 196 0.0 0.0 0.00 0.00 0.00 97 1013.4
20260510061025 60 196 0.0 0.0 0.00 0.00 0.00 97 1013.3
20260510060503 60 196 0.0 0.0 0.00 0.00 0.00 96 1013.4
20260510060004 60 196 0.0 0.0 0.00 0.00 0.00 96 1013.4
20260510055503 60 196 0.0 0.0 0.00 0.00 0.00 96 1013.4
20260510055004 60 196 0.0 0.0 0.00 0.00 0.00 96 1013.4
20260510054503 61 196 0.0 0.0 0.00 0.00 0.00 96 1013.4
20260510054003 61 196 0.0 0.0 0.00 0.00 0.00 96 1013.4
20260510053503 61 196 0.0 0.0 0.00 0.00 0.00 95 1013.5
20260510053025 61 196 0.0 0.0 0.00 0.00 0.00 95 1013.4
20260510052524 61 196 0.0 0.0 0.00 0.00 0.00 95 1013.4
20260510052003 61 196 0.0 0.0 0.00 0.00 0.00 95 1013.5
20260510051504 61 196 0.0 0.0 0.00 0.00 0.00 95 1013.4
20260510051025 61 196 0.0 0.0 0.00 0.00 0.00 95 1013.4
20260510050503 61 196 0.0 0.0 0.00 0.00 0.00 95 1013.4
20260510050004 62 196 0.0 0.0 0.00 0.00 0.00 94 1013.4
20260510045524 62 196 0.0 0.0 0.00 0.00 0.00 94 1013.4
20260510045003 62 196 0.0 0.0 0.00 0.00 0.00 94 1013.4
20260510044003 62 196 0.0 0.0 0.00 0.00 0.00 94 1013.4
20260510043505 62 196 0.0 0.0 0.00 0.00 0.00 93 1013.7
20260510043003 62 196 0.0 0.0 0.00 0.00 0.00 93 1013.7
20260510042503 63 196 0.0 0.0 0.00 0.00 0.00 93 1013.7
20260510042003 63 196 0.0 0.0 0.00 0.00 0.00 93 1013.7
20260510041503 63 196 0.0 0.0 0.00 0.00 0.00 92 1013.8
20260510041003 63 196 0.0 0.0 0.00 0.00 0.00 92 1013.8
20260510040503 63 196 0.0 0.0 0.00 0.00 0.00 92 1013.7
20260510040004 63 196 0.0 0.0 0.00 0.00 0.00 92 1013.8
20260510035525 63 196 0.0 0.0 0.00 0.00 0.00 92 1013.7
20260510035003 64 196 0.0 0.0 0.00 0.00 0.00 91 1013.7
20260510034524 64 196 0.0 0.0 0.00 0.00 0.00 91 1013.7
20260510034025 64 196 0.0 0.0 0.00 0.00 0.00 91 1013.7
20260510033503 64 196 0.0 0.0 0.00 0.00 0.00 91 1013.8
20260510033003 64 196 0.0 0.0 0.00 0.00 0.00 90 1013.8
20260510032524 64 196 0.0 0.0 0.00 0.00 0.00 90 1013.7
20260510032003 64 196 0.0 0.0 0.00 0.00 0.00 90 1013.7
20260510031504 64 196 0.0 0.0 0.00 0.00 0.00 90 1013.8
20260510031003 64 196 0.0 0.0 0.00 0.00 0.00 90 1013.7
20260510030503 64 196 0.0 0.0 0.00 0.00 0.00 90 1013.5
20260510030003 65 196 0.0 0.0 0.00 0.00 0.00 89 1013.5
20260510025504 65 196 0.0 0.0 0.00 0.00 0.00 89 1013.5
20260510025004 65 196 0.0 0.0 0.00 0.00 0.00 88 1013.4
20260510024503 65 196 0.0 0.0 0.00 0.00 0.00 88 1013.3
20260510024003 65 196 0.0 0.0 0.00 0.00 0.00 88 1013.3
20260510023503 65 196 0.0 3.0 0.00 0.00 0.00 88 1013.3
20260510023003 65 201 0.0 3.0 0.00 0.00 0.00 87 1013.2
20260510022503 65 165 0.0 0.0 0.00 0.00 0.00 86 1013.1
20260510022024 65 165 0.0 0.0 0.00 0.00 0.00 86 1013.0
20260510021503 66 165 0.0 0.0 0.00 0.00 0.00 85 1012.8
20260510020504 66 165 0.0 0.0 0.00 0.00 0.00 84 1012.6
20260510020005 66 165 0.0 0.0 0.00 0.00 0.00 84 1012.5
20260510015502 66 165 0.0 0.0 0.00 0.00 0.00 83 1012.4
20260510015003 66 165 0.0 3.0 0.00 0.00 0.00 83 1012.3
20260510014503 66 165 0.0 3.0 0.00 0.00 0.00 83 1012.2
20260510014004 67 165 0.0 0.0 0.00 0.00 0.00 82 1012.1
20260510013524 67 165 0.0 0.0 0.00 0.00 0.00 83 1012.1
20260510013003 67 165 0.0 0.0 0.00 0.00 0.00 82 1012.0
20260510012503 67 165 0.0 0.0 0.00 0.00 0.00 81 1011.9
20260510012004 67 165 0.0 0.0 0.00 0.00 0.00 81 1011.9
20260510011502 68 165 0.0 0.0 0.00 0.00 0.00 80 1011.7
20260510011003 68 165 0.0 0.0 0.00 0.00 0.00 80 1011.7
20260510010503 68 165 0.0 0.0 0.00 0.00 0.00 79 1011.7
20260510010003 68 165 0.0 0.0 0.00 0.00 0.00 78 1011.6
20260510005503 69 165 0.0 0.0 0.00 0.00 0.00 78 1011.5
20260510005003 69 165 0.0 0.0 0.00 0.00 0.00 77 1011.5
20260510004503 69 165 0.0 0.0 0.00 0.00 0.00 77 1011.5
20260510004025 70 165 0.0 0.0 0.00 0.00 0.00 76 1011.4
20260510003503 70 165 0.0 0.0 0.00 0.00 0.00 76 1011.2
20260510003003 70 165 0.0 6.0 0.00 0.00 0.00 75 1011.1
20260510002503 70 165 0.0 6.0 0.00 0.00 0.00 75 1011.0
20260510002003 70 190 1.0 4.0 0.00 0.00 0.00 75 1011.0
20260510001524 70 196 0.0 0.0 0.00 0.00 0.00 75 1010.9
20260510001024 70 196 0.0 4.0 0.00 0.00 0.00 74 1010.9
20260510000503 70 195 0.0 4.0 0.00 0.00 0.00 74 1011.0
20260510000003 71 219 0.0 3.0 0.00 0.00 0.00 73 1010.9
20260509235503 71 219 0.0 0.0 0.00 0.00 0.00 73 1010.8
20260509235005 71 219 0.0 0.0 0.00 0.00 0.00 72 1010.8
20260509234525 71 219 0.0 0.0 0.00 0.00 0.00 71 1010.8
20260509234002 72 219 0.0 0.0 0.00 0.00 0.00 71 1010.7
20260509233503 72 219 0.0 0.0 0.00 0.00 0.00 70 1010.6
20260509233004 72 219 0.0 0.0 0.00 0.00 0.00 69 1010.4
20260509232503 72 219 0.0 0.0 0.00 0.00 0.00 69 1010.6
20260509232003 73 219 0.0 0.0 0.00 0.00 0.00 69 1010.8
20260509231504 73 219 0.0 0.0 0.00 0.00 0.00 68 1010.8
20260509231003 73 219 0.0 0.0 0.00 0.00 0.00 67 1010.8